Tracking 20942 objects as of 9-Jul-2020
HD Live streaming from Space Station
objects crossing your sky now

COSMOS 2251 DEB

Track COSMOS 2251 DEB now!
10-day predictions


NORAD ID: 37132
Int'l Code: 1993-036BHE
Perigee: 671.3 km
Apogee: 752.9 km
Inclination: 74.0 °
Period: 98.9 minutes
Semi major axis: 7083 km
RCS: 0.0042 m2 (small)
Launch date: June 16, 1993
Source: Commonwealth of Independent States (former USSR) (CIS)
Launch site: PLESETSK MISSILE AND SPACE COMPLEX (PKMTR)

Note: This is SATELLITE DEBRIS
aabbcc
Your satellite tracking list
Your tracking list is empty




NASA's NSSDC Master Catalog

Two Line Element Set (TLE):
1 37132U 93036BHE 20190.98411138 +.00000271 +00000-0 +66491-4 0  9994
2 37132 074.0108 079.6116 0057662 005.6953 354.4853 14.56359064334298
Source of the keplerian elements: AFSPC